ECMWFNIL_850_spd_000.txt.gz
Wind_Speed
18 18 18 17 16 14 14 13 11 11 11 11 11 11 11 13 15 17 18 19 21 22 23 24 24 23 22 21 20 21 22 22 23 23 23 23 25 25 26 27 26 27
18 18 18 18 17 15 16 15 13 12 12 13 13 13 13 14 16 18 20 22 23 25 26 26 25 23 20 19 20 22 23 23 23 23 23 23 24 26 27 28 28 27
17 18 19 19 17 16 17 16 14 13 13 14 14 15 15 16 17 19 21 23 25 25 25 23 22 20 17 17 19 23 24 23 22 22 22 22 23 25 26 27 29 28
17 18 19 19 18 18 18 17 15 15 14 15 15 15 16 17 19 21 22 24 24 23 22 21 20 17 16 17 18 22 24 24 23 21 22 24 25 24 23 23 26 28
16 17 18 19 19 19 19 18 17 16 16 16 16 16 17 19 21 22 23 23 24 23 22 22 20 17 16 18 19 20 22 25 25 24 24 24 25 25 23 21 22 24
16 16 17 19 19 20 20 19 18 18 17 17 17 18 20 21 22 22 23 24 24 25 24 23 23 20 18 18 19 20 21 23 25 26 26 24 23 24 23 22 21 22
16 16 17 18 19 20 20 19 19 18 18 18 18 19 20 21 22 23 23 24 25 26 26 25 24 22 19 17 18 21 22 22 24 25 26 26 25 24 24 24 23 22
17 17 17 18 19 20 19 19 19 18 18 18 19 20 21 21 22 22 23 24 25 26 26 25 23 22 19 17 18 20 22 24 24 25 25 26 27 28 29 29 27 26
18 18 18 19 20 20 19 18 17 17 17 18 19 20 20 20 21 22 22 24 25 25 24 22 22 22 20 19 19 20 23 25 26 26 26 26 28 30 33 33 32 31
19 19 19 20 20 20 18 17 16 16 16 17 18 18 19 19 20 22 23 24 25 24 22 21 21 22 22 21 22 23 25 26 27 28 28 28 29 30 32 34 35 35
19 19 19 19 19 18 17 15 15 15 15 16 17 18 18 20 21 22 23 23 23 24 24 24 23 22 23 24 25 26 27 27 27 28 29 30 31 31 32 33 35 37
19 19 19 18 18 17 15 15 14 14 15 15 16 17 19 21 23 24 24 24 24 25 26 26 25 24 25 28 29 28 29 29 29 30 31 32 32 32 32 33 34 36
19 19 18 17 16 15 14 14 14 14 14 15 16 18 22 25 26 26 25 25 25 24 23 22 23 24 26 28 29 29 29 30 30 30 30 32 33 33 33 33 34 35
18 17 17 15 15 15 14 14 13 13 14 16 19 22 25 26 26 24 23 23 23 21 20 20 21 22 23 25 26 27 26 27 28 29 29 30 31 33 35 35 35 36
17 16 16 15 15 15 14 13 13 14 16 20 23 25 25 24 23 21 22 22 21 20 21 22 22 23 24 25 25 25 24 24 25 27 27 27 29 30 32 34 35 36
17 17 17 16 15 14 12 12 13 15 18 22 24 23 23 22 20 19 20 21 20 20 21 22 23 24 24 24 25 26 27 28 29 30 30 30 31 31 31 32 32 34
16 16 15 14 13 11 11 12 14 17 19 22 22 20 19 19 19 19 19 19 20 21 22 23 24 24 24 24 25 27 29 32 35 36 37 37 37 36 36 36 35 34
15 15 13 12 10 10 11 13 15 17 19 19 19 17 18 19 19 20 20 20 22 23 23 24 25 26 26 27 27 28 30 32 35 37 39 40 40 39 39 39 40 40
15 14 12 10 10 11 12 14 16 17 17 17 16 17 19 20 20 20 21 22 24 24 25 26 26 27 28 28 28 29 30 33 36 38 40 41 42 42 42 41 41 42
14 12 10 10 10 11 13 14 15 16 15 15 15 17 20 22 23 23 23 23 25 26 28 28 28 28 29 29 29 30 31 33 36 39 42 44 45 45 44 44 42 40
12 10 8 8 10 12 13 14 15 15 14 14 16 19 22 25 25 25 24 25 26 28 29 31 31 30 29 29 31 32 33 34 36 38 41 45 47 49 49 48 47 44
8 8 8 8 11 12 13 13 14 14 14 15 19 22 25 25 24 24 25 26 27 28 29 31 32 31 31 31 32 33 34 36 37 39 41 44 46 47 46 46 47 47
7 7 8 10 11 11 12 13 13 14 15 17 21 22 22 22 23 25 27 27 27 28 30 32 33 33 33 33 33 34 35 37 39 40 42 44 45 44 42 41 42 43
7 8 9 10 11 11 11 12 14 15 16 17 20 22 22 22 24 26 27 26 27 28 30 31 33 34 33 33 32 32 34 37 39 41 42 44 44 44 43 42 42 41
7 8 9 9 10 10 11 13 14 16 16 18 20 22 24 24 24 25 26 26 27 29 29 31 33 33 32 31 32 33 36 39 40 42 44 44 43 44 44 43 43 42
6 7 8 8 9 10 12 14 15 15 16 19 21 23 24 24 23 25 28 29 28 29 29 30 31 32 32 32 33 34 34 36 38 41 43 43 42 43 44 44 44 43

ECMWFNIL_850_spd_003.txt.gz
Wind_Speed
15 15 15 15 15 15 15 14 13 11 9 7 6 6 6 7 9 11 12 13 14 16 16 17 18 17 15 14 15 17 19 19 19 20 20 20 21 23 24 24 23 23
15 14 14 15 16 16 16 16 15 13 11 9 8 7 8 9 10 12 14 15 16 18 18 18 19 19 18 16 14 15 17 19 19 20 21 22 22 23 25 26 25 24
14 13 13 14 15 17 17 18 17 14 12 11 10 10 10 10 12 13 15 16 18 19 19 19 19 20 20 20 18 16 17 18 19 19 21 23 24 25 26 27 28 27
14 12 12 12 14 16 18 18 17 15 13 12 12 12 12 13 14 15 16 17 18 19 20 20 19 20 20 21 21 20 20 20 20 19 21 23 25 26 27 27 28 29
13 12 11 12 13 15 17 17 17 15 14 14 14 14 14 14 15 16 17 18 19 20 21 21 21 21 21 21 21 22 22 22 22 22 22 23 25 27 28 28 29 29
14 12 12 12 13 15 16 17 16 15 15 15 15 15 14 14 15 17 18 19 20 21 22 23 24 24 24 23 21 22 22 23 24 24 24 24 24 26 28 30 30 31
15 13 12 13 13 15 16 16 16 17 17 16 16 15 15 15 16 17 18 19 21 23 24 25 26 26 25 24 23 23 23 24 25 25 26 25 24 25 26 29 32 33
15 14 14 14 14 15 16 16 16 17 17 17 16 15 15 16 17 18 19 21 22 24 25 26 26 26 25 24 24 25 26 27 27 27 26 25 24 24 24 26 29 33
16 16 16 15 15 15 15 16 16 16 16 16 15 15 15 15 17 18 19 21 23 24 25 26 26 25 24 22 23 25 28 30 31 30 28 27 26 27 26 26 26 29
17 17 17 17 16 16 15 15 15 15 15 15 14 14 15 15 16 17 19 21 23 24 25 26 25 24 25 26 27 29 31 33 33 32 31 30 29 28 28 28 29 28
19 19 18 18 17 16 16 16 15 15 14 13 13 13 14 15 16 17 19 22 23 25 26 26 26 27 28 30 30 31 32 32 31 30 29 29 29 28 29 30 31 31
20 20 19 18 18 17 16 16 15 14 13 12 12 12 13 14 16 18 21 23 25 26 27 27 27 27 29 30 30 29 28 27 27 27 27 28 29 29 29 30 32 33
21 21 19 18 17 16 16 15 14 13 12 11 11 12 13 15 17 19 22 24 26 26 27 26 26 27 28 29 28 28 27 27 26 26 27 28 29 29 29 30 31 32
22 21 19 18 17 15 15 14 14 12 12 11 12 13 14 16 18 21 23 24 25 25 25 25 25 27 27 28 28 27 27 28 28 28 28 29 30 30 30 31 32 32
22 22 20 18 16 16 15 14 13 12 12 12 12 14 15 17 20 22 23 24 23 23 24 24 25 25 26 26 27 27 27 27 27 28 29 31 32 33 33 33 33 33
23 22 20 18 17 16 15 14 13 12 12 12 13 15 17 19 20 21 22 22 22 23 25 26 27 27 27 27 27 27 27 27 28 30 31 32 34 35 37 37 37 37
24 22 20 19 18 17 16 14 12 11 11 13 15 16 18 19 19 19 20 21 23 25 27 28 29 30 29 29 28 27 27 28 30 32 33 35 36 37 38 39 39 39
23 21 20 19 19 17 14 11 9 10 12 14 16 17 17 17 17 19 21 23 25 27 28 30 31 31 30 30 29 28 28 29 30 32 33 35 37 38 40 40 40 40
22 21 20 19 17 14 10 8 8 11 13 15 16 16 16 16 18 21 23 24 26 28 31 32 32 31 31 31 31 32 32 33 33 34 35 36 37 38 40 41 42 42
21 19 18 16 13 9 7 7 10 12 14 15 15 15 15 17 19 21 23 26 27 29 32 33 32 32 31 31 32 33 34 35 35 36 38 40 41 41 42 42 42 43
19 18 16 14 10 7 7 9 11 13 14 14 13 12 15 17 20 22 25 27 28 30 32 33 33 32 31 31 33 34 36 37 38 39 41 42 43 43 43 44 43 43
19 18 16 11 7 7 8 10 11 13 13 12 12 13 16 19 22 24 26 28 30 31 33 34 33 32 32 33 35 36 37 39 40 41 41 41 42 42 43 44 44 44
20 17 13 8 6 8 9 10 10 11 12 13 14 17 20 23 25 26 28 30 32 33 33 33 33 33 34 35 36 37 38 39 39 38 38 39 41 42 43 44 45 44
17 13 8 6 7 8 9 10 11 12 13 16 18 21 23 24 26 27 29 31 32 32 32 33 34 35 35 36 37 36 36 36 35 36 38 40 42 43 43 44 45 45
15 11 8 8 9 10 10 11 13 14 16 18 19 21 22 23 26 28 29 30 31 31 32 33 34 34 34 35 37 35 34 33 34 37 40 42 43 44 44 44 45 45
14 10 8 7 8 8 10 11 12 12 13 15 17 18 20 23 26 27 28 30 32 33 33 34 35 35 34 33 33 33 32 32 34 38 41 43 43 44 44 45 44 44

ECMWFNIL_850_spd_006.txt.gz
Wind_Speed
17 16 15 14 14 14 14 13 13 13 11 9 8 7 6 5 5 5 5 6 7 8 9 10 10 10 10 10 10 11 12 13 13 14 17 19 21 23 23 24 24 25
19 17 16 16 16 16 16 16 16 15 13 11 10 9 8 7 7 6 7 7 8 9 10 11 12 13 14 14 14 13 12 12 12 13 15 17 19 22 24 25 26 26
20 18 17 16 16 17 18 18 17 17 15 13 12 11 10 10 9 8 8 8 9 10 11 11 12 13 15 16 17 17 15 13 12 12 14 16 19 21 23 26 27 28
22 20 17 15 15 16 18 18 18 18 17 15 14 13 12 11 10 9 9 9 10 10 10 11 12 13 15 16 17 18 18 16 14 13 13 15 18 21 23 25 27 28
23 21 17 15 15 15 16 17 18 18 18 16 15 14 14 12 11 10 10 10 10 10 10 11 12 14 15 17 18 18 18 17 16 15 14 15 16 18 22 25 26 27
24 22 18 16 16 15 16 16 17 17 17 16 16 16 14 12 11 10 10 11 10 9 9 11 13 14 16 18 19 19 19 19 19 18 18 17 17 17 18 22 25 27
25 23 20 18 16 16 16 16 16 16 16 17 17 16 15 13 11 11 11 11 9 9 10 12 14 16 18 20 21 21 21 21 22 22 23 22 21 19 18 19 21 24
26 25 21 19 17 16 16 16 16 16 16 17 17 16 15 13 12 12 11 10 9 9 11 14 16 18 20 21 22 22 22 22 23 25 26 27 26 23 21 20 21 22
27 26 23 20 19 17 16 16 16 16 17 17 17 16 14 13 12 12 11 9 9 11 14 15 18 19 21 22 23 23 24 24 25 26 27 27 27 26 24 22 22 22
29 27 25 22 20 18 17 17 16 17 17 17 17 16 14 13 12 11 9 9 11 13 15 17 19 21 22 24 24 24 24 24 24 25 26 26 26 25 25 23 22 22
31 29 27 23 21 19 17 17 17 16 17 16 16 15 13 12 11 9 9 10 12 14 16 18 21 23 24 24 24 23 24 24 24 24 25 25 25 25 24 23 22 22
33 31 29 25 21 19 18 17 16 16 15 15 14 13 12 11 9 9 9 11 13 16 18 21 23 23 23 22 22 23 24 26 26 26 27 27 27 26 25 24 24 24
36 32 29 25 21 19 17 16 15 14 13 13 12 12 11 10 8 9 10 13 15 18 20 22 22 21 20 21 23 25 26 27 27 28 29 28 28 27 25 24 25 25
37 33 29 24 21 18 16 15 14 12 12 12 12 11 10 9 8 10 12 14 17 20 21 21 20 20 21 23 26 28 29 28 28 29 29 29 28 28 26 26 26 26
37 32 26 22 20 17 15 14 12 12 12 11 10 10 10 10 10 11 13 17 20 21 20 20 21 23 25 27 29 31 31 31 30 29 28 28 28 28 28 29 29 29
34 29 24 21 19 17 15 13 12 12 10 9 9 10 11 11 11 13 17 19 19 19 19 21 22 24 26 29 31 32 33 33 32 30 28 27 28 29 29 30 30 31
31 28 24 22 20 17 15 14 12 10 8 8 10 11 11 12 13 16 18 19 18 18 19 21 23 25 28 30 32 33 34 34 34 31 30 30 31 32 32 33 32 32
34 31 27 24 21 18 16 14 10 8 7 9 11 12 12 14 16 18 18 17 17 18 20 22 24 27 30 32 33 34 34 34 33 33 33 34 34 35 36 37 37 37
36 32 28 26 23 19 16 12 8 8 9 10 12 12 14 16 17 18 17 16 17 19 22 25 28 30 32 33 34 34 33 32 32 33 35 36 37 38 39 40 40 41
34 30 28 27 24 19 15 11 8 9 9 10 12 14 16 17 18 17 17 17 19 21 25 28 29 31 32 33 33 32 32 32 33 35 37 38 39 40 41 42 42 42
31 29 29 27 23 18 14 10 8 9 9 11 14 16 18 18 17 17 17 19 21 24 26 28 29 31 31 31 31 31 32 33 34 36 38 40 41 41 42 43 42 41
30 30 29 26 22 18 12 9 8 9 12 14 16 17 17 17 16 17 19 20 21 23 25 27 28 28 29 29 29 30 30 32 33 36 38 40 41 42 42 42 41 39
30 29 27 25 21 15 9 8 10 13 15 16 16 16 16 16 17 17 17 18 20 23 25 28 30 30 30 31 30 30 31 32 33 35 36 38 40 41 41 41 40 39
30 28 26 22 16 11 9 10 13 14 15 15 15 15 14 13 14 14 15 19 22 24 27 31 34 35 35 34 33 32 32 33 34 35 36 37 38 38 39 40 40 40
30 26 23 19 13 11 11 12 13 13 14 15 14 12 10 11 12 13 16 20 23 26 28 32 36 39 39 37 35 33 33 32 33 34 35 36 37 38 38 39 39 39
28 26 23 17 12 11 12 13 13 12 11 10 9 8 9 11 13 14 18 21 25 27 29 32 37 41 40 37 35 34 32 31 31 32 34 36 37 38 39 40 40 40

ECMWFNIL_850_spd_009.txt.gz
Wind_Speed
19 17 16 15 13 12 11 12 12 12 11 10 9 8 7 6 5 4 3 3 3 5 6 6 6 6 7 7 8 8 8 8 7 7 9 11 14 17 18 19 20 20
20 19 18 17 15 13 13 13 13 13 12 12 11 10 9 8 6 5 4 4 5 6 7 7 7 7 8 8 9 9 10 9 9 9 8 8 10 13 16 18 19 20
21 20 19 18 16 14 14 13 14 14 13 13 12 12 11 10 8 6 6 6 7 8 9 9 8 9 10 11 11 11 12 11 11 10 10 10 9 10 12 15 17 19
23 21 20 19 17 15 14 14 15 15 15 15 15 14 13 12 10 8 7 8 9 10 10 10 10 10 11 12 13 13 14 13 13 12 11 11 11 11 11 12 14 16
24 23 22 21 18 15 15 16 16 17 16 16 16 15 14 13 11 10 9 9 10 11 11 10 10 11 11 12 13 14 15 15 15 15 14 13 12 12 13 13 14 14
26 25 24 23 20 17 17 17 17 17 17 17 17 17 15 14 13 12 11 12 12 13 13 11 10 11 11 13 14 16 17 17 17 17 17 17 15 15 15 16 16 16
27 27 26 25 22 19 19 18 18 18 18 18 18 17 16 15 14 13 13 13 14 14 13 12 11 11 12 14 16 17 19 19 20 20 20 20 20 19 18 18 18 18
28 28 28 28 25 22 21 20 19 19 18 18 18 17 17 15 15 15 14 15 15 15 14 13 12 12 14 16 18 19 20 20 21 21 22 23 23 23 23 21 20 19
30 29 30 30 27 25 23 22 21 20 19 18 18 18 17 16 16 15 15 15 16 15 15 13 13 14 16 18 19 20 21 20 20 21 22 24 24 25 25 25 24 21
35 33 32 32 30 26 24 23 22 20 19 19 19 18 18 17 17 16 16 16 15 15 13 12 13 15 17 20 21 20 20 20 20 22 23 24 25 25 26 26 26 26
39 38 36 34 31 27 25 24 22 21 20 20 19 19 19 18 18 17 17 16 14 13 12 12 14 16 19 21 20 19 19 20 21 23 24 24 25 25 26 26 27 27
40 40 37 35 32 28 25 25 23 21 21 20 19 19 19 19 18 17 16 14 12 11 11 13 15 17 20 20 19 19 20 22 24 25 26 26 26 26 27 27 27 26
43 40 37 34 33 30 26 25 23 21 20 20 19 19 19 18 17 16 14 12 11 11 12 14 16 19 20 20 20 21 23 25 27 28 29 29 29 28 28 28 27 26
44 42 38 34 34 33 29 25 22 20 20 20 19 18 18 17 16 14 12 10 10 11 14 16 18 20 20 20 21 24 26 28 30 32 33 33 32 31 30 28 27 26
45 43 40 37 36 36 31 25 22 20 20 20 19 18 17 16 13 11 10 10 11 13 15 18 20 20 19 20 23 25 27 30 32 34 35 35 35 34 32 30 29 28
46 45 44 42 39 37 32 26 22 21 20 19 18 16 15 13 12 11 11 12 13 15 18 19 19 19 19 21 23 26 30 32 35 36 37 37 37 36 35 33 32 32
46 46 47 46 42 37 33 28 25 23 22 19 17 15 14 12 12 13 13 14 15 17 19 19 18 18 20 23 26 29 32 35 37 38 37 37 37 36 36 36 35 35
45 46 47 46 42 38 34 30 27 25 22 19 18 17 15 13 14 15 15 16 17 18 18 18 18 19 22 26 28 31 32 34 35 36 36 37 36 37 37 37 38 38
42 45 45 41 37 34 31 28 27 24 21 20 19 17 15 15 16 17 17 17 17 17 17 17 18 21 24 26 27 28 29 31 33 34 35 36 36 37 37 38 38 39
40 43 44 40 36 33 31 28 26 23 21 19 18 16 16 17 17 17 17 17 17 16 16 18 20 22 23 24 25 27 29 31 32 33 34 35 36 36 37 37 38 39
39 41 41 40 38 36 33 29 25 22 20 18 16 16 17 17 17 17 16 16 16 16 18 19 20 21 22 23 25 28 30 32 33 35 35 36 36 36 36 37 37 38
38 39 39 38 37 35 32 29 25 21 18 17 16 17 16 16 16 15 15 15 15 16 17 18 19 21 22 24 26 29 32 35 36 37 37 38 38 38 38 38 37 38
39 41 39 37 35 31 27 25 22 19 17 16 16 16 15 15 14 14 14 14 15 15 16 18 20 22 24 25 27 31 35 38 39 40 40 40 40 40 39 40 39 39
40 40 37 34 31 28 25 23 20 18 16 15 15 15 14 13 13 13 12 12 13 14 17 20 23 24 24 26 29 33 37 40 42 43 43 42 42 41 41 41 41 40
38 35 33 30 28 28 28 25 21 17 16 16 15 13 12 12 12 11 10 10 12 14 18 21 23 24 25 28 30 34 38 41 44 45 45 44 43 43 43 42 42 41
35 33 32 28 27 29 27 22 19 17 16 15 13 11 11 11 9 8 8 9 12 15 19 22 24 25 27 29 32 35 38 42 44 46 46 46 45 44 44 44 42 42

ECMWFNIL_850_spd_012.txt.gz
Wind_Speed
21 20 19 17 14 10 9 9 8 7 7 6 6 6 5 5 5 4 3 3 2 2 2 4 5 5 5 5 5 5 6 6 7 7 8 8 8 9 10 11 12 13
22 22 21 20 17 14 12 11 9 9 8 8 7 7 8 7 7 6 5 4 3 3 3 4 6 6 6 6 6 7 7 7 7 7 7 8 8 8 9 10 11 12
24 23 23 22 20 16 14 13 11 10 10 10 10 10 10 9 8 7 6 5 4 4 4 6 7 7 7 7 7 8 8 9 9 9 9 9 9 9 9 10 11 12
25 25 24 22 21 19 16 15 13 12 13 12 12 12 12 11 10 9 8 7 6 6 6 8 8 8 8 8 8 9 10 11 11 11 11 11 11 11 11 12 12 12
27 25 24 23 21 20 19 17 15 15 14 14 14 14 14 13 12 11 10 9 9 8 9 10 10 10 10 10 10 11 12 13 13 14 13 13 13 13 14 14 15 15
30 29 27 25 23 22 21 19 17 17 16 16 16 16 15 14 13 12 11 11 10 10 11 11 12 12 11 12 12 13 14 15 15 16 16 16 16 16 16 17 17 17
30 32 30 28 27 25 24 22 19 18 18 18 17 17 17 16 15 14 13 13 12 12 13 12 13 13 13 13 14 15 16 17 17 18 18 18 18 19 19 19 20 20
29 33 33 32 31 29 27 25 22 21 20 20 20 20 19 18 17 16 16 15 15 15 15 14 14 14 14 14 15 16 17 18 19 19 20 21 21 22 22 22 22 22
28 31 34 36 35 32 31 28 25 23 22 22 22 21 21 20 19 18 18 18 18 18 17 16 16 16 15 16 17 17 18 18 19 20 21 22 23 24 24 24 24 24
31 31 34 38 39 36 33 31 29 26 25 25 24 23 23 22 21 21 20 20 20 19 18 17 17 17 17 17 18 18 19 19 19 20 21 22 23 24 25 26 27 27
37 36 35 37 40 40 37 34 32 29 27 27 26 25 25 24 23 24 23 22 22 20 19 19 18 18 18 18 18 19 19 20 21 21 22 23 23 24 25 26 27 28
40 41 39 38 40 42 41 37 34 32 29 29 28 27 26 25 25 25 24 23 22 21 20 19 19 18 18 18 18 18 19 21 22 22 23 24 25 26 27 28 28 28
37 40 41 41 42 44 43 39 36 34 32 31 30 28 26 26 26 26 25 23 21 21 20 19 19 18 17 16 17 18 20 21 22 23 24 26 27 29 30 30 30 29
33 36 38 41 44 45 45 42 36 35 36 34 32 30 28 27 27 26 24 23 22 21 20 19 18 17 16 16 18 19 20 21 22 24 26 28 30 31 31 31 30 30
28 32 35 38 41 43 45 44 40 38 38 37 34 31 28 27 27 26 24 23 22 21 20 18 16 15 16 17 19 19 20 22 23 25 28 29 30 31 30 30 30 30
23 27 31 34 37 39 41 43 45 44 41 39 36 31 29 28 27 26 24 23 22 21 19 17 15 15 17 18 20 20 21 23 24 26 27 28 29 30 31 31 30 30
22 24 27 31 33 36 37 41 46 46 40 37 34 31 29 28 26 25 24 23 22 20 17 16 15 16 18 19 21 21 22 24 25 25 26 26 28 29 31 31 31 31
23 24 25 28 31 34 36 39 43 42 37 34 32 31 30 28 27 26 24 23 21 19 16 15 15 16 19 20 21 22 23 24 24 24 25 26 27 29 30 31 32 32
24 25 25 26 30 34 35 37 39 39 37 34 32 31 30 28 27 26 24 22 20 18 16 15 15 18 20 20 21 22 23 24 24 24 25 26 27 29 30 31 32 33
26 27 26 26 29 32 33 34 36 37 36 34 33 31 30 28 27 25 23 21 18 17 15 15 16 18 19 19 20 21 23 24 24 25 26 27 28 30 31 32 32 33
27 28 27 26 27 30 31 32 34 36 36 35 34 32 30 28 26 23 20 18 17 16 16 16 17 18 18 18 19 21 23 24 25 26 27 29 30 31 32 33 33 33
26 28 28 26 26 28 30 31 34 38 39 37 34 31 29 26 23 20 18 17 17 17 16 16 16 17 17 18 20 21 23 24 25 28 29 31 32 33 34 35 34 34
26 28 27 26 27 28 29 31 36 41 41 38 34 31 27 23 19 17 16 16 16 17 16 16 15 16 16 18 19 21 23 25 27 29 32 34 35 36 37 37 36 35
26 27 25 25 27 28 29 33 39 41 38 35 32 28 24 21 18 16 15 15 16 16 16 14 14 14 16 18 19 21 23 26 29 31 34 36 38 40 40 40 39 37
25 25 23 23 26 29 31 35 39 37 33 31 28 24 21 19 16 15 14 15 15 15 14 13 12 13 16 18 19 21 24 27 30 33 36 39 41 42 43 42 41 39
22 22 21 21 25 29 32 36 40 38 34 31 25 21 18 14 13 13 13 13 13 13 12 11 12 14 17 18 20 22 25 28 31 35 38 41 43 44 45 44 42 40

ECMWFNIL_850_spd_015.txt.gz
Wind_Speed
16 17 16 15 13 12 12 12 11 10 8 6 5 5 5 6 6 5 5 4 3 3 3 2 2 1 2 3 4 5 6 7 7 7 7 8 9 9 8 8 6 6
17 17 17 17 16 14 14 13 13 12 10 8 7 7 7 7 7 6 6 5 5 4 4 4 3 2 2 3 4 5 6 8 8 9 9 9 10 10 10 11 10 9
19 19 19 19 18 17 16 15 15 14 12 11 10 9 9 8 8 8 8 7 7 6 6 6 5 4 4 4 4 5 6 8 9 10 11 11 11 11 12 12 12 12
20 20 20 20 20 19 19 18 17 16 15 14 13 12 11 11 10 10 9 9 9 8 8 7 6 5 5 5 5 6 7 8 9 10 12 12 12 12 12 12 13 13
21 21 21 21 21 21 22 22 20 19 18 17 16 15 15 14 13 12 12 11 11 11 10 9 8 7 6 7 7 8 8 9 10 11 12 13 13 13 14 14 14 14
24 23 23 22 22 22 23 24 23 21 20 19 18 18 17 17 16 14 14 13 13 13 12 11 10 8 8 8 9 9 10 10 11 11 12 13 13 14 15 16 16 17
27 25 23 23 24 25 25 25 25 24 23 22 21 20 20 19 18 17 16 15 14 14 14 13 12 10 10 11 11 12 12 12 12 12 13 14 14 15 15 16 17 17
32 29 25 24 25 27 28 28 27 26 25 24 24 23 22 21 21 19 18 17 17 16 16 15 14 12 12 13 13 14 14 14 13 13 13 14 14 15 16 17 17 18
37 35 31 29 28 27 28 29 30 29 27 27 26 25 24 24 23 22 21 19 19 19 18 17 15 14 14 15 15 16 16 15 15 14 14 15 15 16 17 18 19 19
34 37 37 36 34 32 29 29 30 31 31 30 28 28 27 26 25 24 23 22 21 21 20 19 17 16 16 17 17 17 18 17 17 17 16 16 17 17 18 19 20 22
26 30 35 39 40 39 35 31 30 32 33 33 32 31 30 29 28 27 26 25 24 23 22 20 19 19 19 19 20 20 20 19 19 19 18 18 19 19 20 21 22 23
19 23 28 34 38 41 41 39 35 33 33 35 35 34 33 32 31 30 29 28 26 25 24 23 22 21 22 22 22 22 22 21 20 20 20 20 21 22 22 23 24 23
15 18 22 26 30 36 40 42 41 39 37 36 37 37 37 36 35 33 31 29 28 27 27 26 24 24 25 24 24 23 23 22 22 21 21 22 22 23 24 25 24 23
11 14 18 21 24 27 32 37 40 41 41 39 38 39 39 40 38 36 34 32 30 29 28 27 27 27 27 26 24 24 23 23 22 21 22 22 23 24 24 25 24 23
12 13 15 17 20 23 26 29 32 34 36 37 38 37 38 40 39 34 33 33 31 30 29 29 29 29 27 25 24 23 23 22 21 21 22 23 24 24 24 24 24 24
15 15 15 16 18 21 23 25 26 28 31 33 35 34 35 38 37 32 32 33 31 30 30 30 30 28 25 24 23 23 22 21 21 21 22 23 24 24 24 24 24 25
19 19 19 19 19 19 20 22 23 25 27 29 31 31 32 35 37 33 32 33 32 32 32 31 29 26 24 23 22 21 20 19 20 21 22 23 23 24 24 25 25 26
21 22 22 22 22 21 20 20 21 22 23 25 27 29 30 33 36 36 34 34 33 33 32 30 27 24 22 21 20 19 18 18 19 21 22 23 23 23 24 25 26 27
21 21 23 24 24 24 23 21 20 19 20 22 24 27 30 33 37 37 35 34 34 34 31 27 23 21 20 19 18 17 17 18 19 20 21 22 22 23 24 25 27 28
22 22 22 23 25 26 25 23 21 18 18 20 22 26 30 33 37 38 37 36 34 32 29 25 21 19 18 16 16 16 17 18 19 20 21 21 22 23 25 26 27 28
23 23 23 23 24 25 26 25 23 19 16 17 21 26 29 33 38 38 37 36 33 30 26 22 19 17 15 15 15 16 18 19 20 20 21 22 23 24 26 27 28 29
24 25 24 24 24 25 26 26 24 20 17 17 20 25 30 34 38 37 36 34 31 27 23 19 16 15 14 14 16 17 18 19 20 21 22 23 25 26 28 29 30 30
24 25 25 24 24 25 26 26 23 19 16 16 20 25 31 36 38 37 35 32 28 24 20 17 15 13 13 14 16 17 18 19 20 22 23 25 27 29 30 31 31 31
25 25 25 24 24 25 24 24 21 16 15 17 21 25 32 38 40 37 33 27 23 20 17 15 13 13 14 15 15 17 18 19 20 23 25 27 30 32 33 33 34 34
24 24 24 24 23 23 22 21 18 15 16 19 23 28 35 39 37 32 27 23 19 16 13 12 12 13 13 13 14 16 17 19 21 24 26 29 32 34 35 36 37 38
23 22 23 23 22 22 21 19 15 14 17 22 27 31 36 37 31 24 21 19 16 13 12 11 11 10 11 12 13 15 17 19 22 25 28 31 33 36 37 38 39 40

ECMWFNIL_850_spd_021.txt.gz
Wind_Speed
17 16 16 16 15 13 13 13 12 11 10 9 8 8 8 6 3 2 3 2 1 1 1 1 2 2 1 1 2 2 2 3 4 4 5 5 6 5 5 5 4 4
18 16 15 15 15 14 14 14 13 13 11 11 10 9 10 8 5 4 4 4 4 3 2 2 2 1 2 2 1 1 1 2 2 3 4 5 5 6 5 5 5 4
20 18 16 15 14 14 14 15 14 14 12 12 11 11 12 10 7 5 6 6 5 6 5 4 4 3 3 3 3 3 3 3 3 3 4 5 5 6 6 6 6 5
22 20 18 16 15 13 14 15 15 14 13 13 13 13 14 12 9 7 8 7 7 8 7 6 6 5 5 5 4 4 4 4 4 5 5 5 5 6 7 7 7 7
23 22 20 18 16 14 14 15 15 14 14 15 14 14 15 14 12 10 10 9 8 10 9 9 8 7 8 7 5 6 6 5 5 5 4 5 5 5 6 7 7 8
19 21 21 20 18 16 16 16 15 14 14 15 15 15 16 16 14 13 13 12 11 11 11 11 10 10 10 9 8 8 6 6 6 6 5 6 6 6 6 6 7 8
17 18 19 20 18 17 17 17 17 16 15 15 16 16 17 17 16 15 15 14 13 13 13 13 13 12 12 11 10 10 8 8 9 7 4 5 7 8 8 7 7 7
17 17 18 19 19 18 18 18 18 19 18 16 17 17 17 18 17 16 17 16 15 15 15 14 15 14 14 13 12 12 12 12 11 8 5 7 9 9 8 9 9 7
17 16 15 16 17 17 18 19 18 19 20 17 17 17 18 18 18 18 18 18 18 17 17 17 16 16 16 16 14 15 16 15 14 11 10 11 11 7 6 9 11 10
17 20 18 16 16 16 17 18 17 17 19 20 18 17 18 17 18 19 19 19 19 19 19 19 18 18 18 18 17 17 17 17 15 14 13 12 11 9 8 9 11 11
10 15 17 17 18 20 20 19 19 18 19 21 19 18 19 19 18 19 21 21 21 21 20 21 20 20 20 20 19 19 19 18 17 16 15 13 12 12 12 12 13 12
7 8 11 13 16 18 18 19 22 23 23 25 24 22 23 23 21 21 21 22 23 22 21 21 20 20 21 20 19 20 20 19 18 17 16 15 15 14 14 14 14 14
5 6 9 12 14 16 17 17 19 22 25 28 29 29 28 26 25 24 24 24 24 23 23 22 21 21 22 21 20 21 21 20 20 19 17 17 16 15 15 15 15 15
3 5 6 8 9 11 14 15 17 19 22 22 23 25 26 26 26 25 25 25 25 24 24 24 24 24 24 23 22 22 22 22 22 21 19 18 18 17 16 17 17 16
4 5 5 5 6 5 7 10 13 16 18 18 18 19 21 23 23 23 24 24 25 25 25 26 26 26 27 26 24 24 25 25 24 22 20 19 19 17 17 17 17 17
5 6 6 6 6 6 6 8 9 11 13 14 15 17 19 21 21 22 23 23 23 24 24 26 27 28 30 30 29 29 29 28 26 24 22 20 18 16 16 17 16 17
5 5 6 7 7 8 8 8 9 10 10 11 13 15 17 17 18 21 23 23 24 25 25 26 28 29 32 34 33 32 30 27 26 25 22 20 19 17 16 15 15 16
6 6 7 7 7 8 9 9 9 10 10 11 12 13 15 16 17 19 20 21 24 26 27 28 29 29 32 35 35 34 31 27 25 23 22 20 19 18 16 14 15 16
7 7 8 8 8 9 9 9 10 10 11 11 12 13 15 16 17 18 18 18 20 23 26 28 30 31 31 34 36 34 32 28 23 20 20 19 18 18 17 17 17 18
7 7 8 9 10 10 10 11 11 11 12 12 13 13 14 16 17 18 18 18 19 20 23 25 30 32 32 33 34 34 33 29 22 19 19 19 18 19 20 19 20 20
8 8 9 9 10 11 11 12 12 12 12 13 13 14 14 15 15 17 19 19 19 20 21 25 29 32 31 30 30 32 33 28 24 23 22 21 20 20 20 20 20 20
9 9 10 10 11 11 12 12 12 13 13 13 13 14 14 15 15 16 18 19 19 18 22 27 30 32 32 29 28 31 31 27 26 26 24 20 19 19 19 19 19 19
10 10 11 11 11 11 12 13 12 13 13 13 14 14 15 15 16 15 17 19 19 17 22 28 30 32 33 29 27 29 29 26 26 24 20 18 17 17 16 15 16 18
11 11 12 12 12 13 13 13 14 14 14 14 14 15 15 15 15 15 17 19 18 18 25 30 30 31 31 27 27 29 26 23 21 17 15 14 12 12 12 12 13 16
13 14 14 14 14 14 14 15 15 15 15 14 14 15 15 15 15 15 16 16 17 22 29 31 29 29 28 27 27 27 24 20 15 11 10 10 9 9 9 10 12 15
15 15 15 15 15 15 15 16 16 15 15 15 15 15 15 14 14 15 17 19 21 25 29 29 27 27 28 28 26 24 21 18 14 11 10 9 9 9 10 12 13 13

ECMWFNIL_850_spd_024.txt.gz
Wind_Speed
21 19 17 17 14 11 11 10 9 8 7 6 6 4 2 3 4 4 4 4 4 4 5 5 5 5 5 5 4 4 6 7 7 7 7 7 7 7 7 6 5 6
21 19 17 17 15 12 11 11 10 9 8 8 7 7 5 2 2 3 4 4 3 3 3 3 4 4 4 4 3 3 4 5 6 6 6 7 8 7 8 8 7 6
20 18 15 15 15 13 11 11 11 10 9 9 8 8 9 5 2 3 4 4 4 3 2 2 2 2 2 2 2 2 3 3 4 5 5 6 6 7 7 7 7 6
20 18 15 13 13 12 11 11 11 11 10 10 9 9 11 9 6 6 6 6 6 5 3 2 1 0 0 1 0 1 2 2 2 3 4 5 4 5 6 6 6 6
20 18 17 14 12 12 10 10 11 11 10 10 11 10 11 12 10 9 8 8 8 8 7 6 5 4 2 2 2 1 1 1 1 2 2 3 4 4 4 4 5 5
18 17 16 14 14 14 12 10 10 11 10 10 11 11 12 13 13 11 11 10 10 10 10 10 9 8 6 5 5 4 3 3 1 1 2 1 2 2 2 2 3 3
15 15 14 14 15 16 15 12 11 12 11 10 11 12 13 14 15 14 13 12 12 12 13 13 12 11 10 9 9 8 6 6 4 3 4 4 2 2 2 2 2 3
15 15 15 16 16 16 16 15 13 12 12 12 14 13 12 14 16 15 15 15 15 15 15 15 15 14 14 12 12 12 10 10 9 6 6 6 5 5 6 4 2 2
18 18 18 19 18 17 16 16 16 15 15 16 16 15 14 14 15 15 16 17 18 17 17 17 17 17 17 16 15 14 14 13 12 10 9 9 9 8 8 8 6 4
19 20 21 21 20 20 19 18 19 17 16 17 17 17 18 18 16 16 18 19 19 19 19 19 19 19 18 19 17 16 16 16 15 13 12 12 12 10 8 9 10 8
13 14 17 19 21 22 21 20 19 16 16 18 19 19 18 19 20 20 20 20 21 22 22 21 21 20 19 20 19 17 18 18 17 16 14 14 14 12 11 11 12 11
9 10 11 14 16 17 17 19 20 21 22 24 25 25 22 21 24 25 22 22 22 23 24 24 23 22 20 20 19 18 18 20 20 18 17 16 15 14 14 14 13 12
8 9 9 9 10 12 14 16 19 22 24 25 27 29 26 23 25 28 26 24 24 24 25 25 25 23 21 21 21 20 20 21 21 20 19 18 17 17 17 16 15 14
5 6 5 4 4 5 7 9 12 15 16 18 21 23 24 23 23 25 25 24 25 27 28 28 27 26 24 23 23 22 23 24 23 22 22 20 19 19 18 17 16 15
3 1 1 1 1 0 2 4 6 7 8 10 13 15 18 20 21 22 23 22 24 26 28 30 30 29 28 26 24 25 26 27 25 23 23 21 21 20 18 18 17 16
1 0 1 0 0 1 2 3 4 5 6 7 9 11 13 15 16 19 21 22 23 25 27 31 32 31 30 29 27 26 28 29 26 25 24 22 21 20 19 19 18 17
1 1 1 1 2 2 3 4 4 5 6 7 8 10 11 12 14 15 17 19 22 24 26 28 30 30 30 29 27 27 30 32 30 26 24 22 22 21 20 19 18 16
2 2 1 2 3 4 4 5 5 6 7 7 8 10 10 12 13 15 16 18 20 22 23 24 26 28 28 27 27 27 30 34 32 28 24 22 22 20 19 18 17 16
3 2 3 3 4 4 5 6 7 6 7 8 9 10 11 12 14 15 17 18 19 20 21 22 23 25 26 26 27 28 30 33 32 29 25 23 22 20 19 17 17 17
3 3 4 5 6 6 6 7 7 7 8 9 9 10 11 13 15 16 17 18 19 19 20 21 22 22 22 24 28 30 31 32 31 28 25 23 21 20 20 19 18 18
3 4 5 6 7 6 7 7 8 8 9 9 10 11 12 13 14 16 16 17 18 19 19 21 22 21 19 22 26 28 30 30 30 28 25 22 21 21 21 21 21 20
4 5 6 7 7 7 7 7 8 9 9 10 11 12 13 14 14 15 16 16 17 18 19 21 22 21 20 21 23 26 27 27 27 28 27 24 23 23 23 22 21 20
6 7 8 8 8 8 8 8 9 10 11 11 12 13 14 14 14 15 16 17 17 17 20 21 21 21 21 22 23 25 26 25 25 28 29 27 25 23 22 20 19 18
7 8 9 9 10 11 11 12 12 13 13 13 13 14 14 15 15 15 15 16 17 19 21 22 21 21 22 23 23 24 25 25 25 27 29 28 25 22 19 18 16 15
9 10 11 12 12 13 13 13 13 13 14 14 14 14 15 15 15 15 15 17 19 22 23 22 21 21 22 22 22 23 24 25 25 26 26 24 21 17 14 12 11 12
12 12 12 13 13 13 13 13 13 14 14 14 15 15 15 15 15 15 17 20 22 23 23 21 20 20 20 21 22 22 22 23 24 23 21 18 17 15 14 13 12 14

ECMWFNIL_850_spd_027.txt.gz
Wind_Speed
18 15 14 15 14 12 12 11 10 9 9 9 10 10 10 10 10 10 10 9 9 8 8 8 7 7 8 9 9 8 8 8 8 8 7 7 7 6 6 5 5 4
19 16 15 15 13 12 11 10 9 8 7 6 6 7 8 8 9 9 9 9 8 7 7 6 6 5 5 6 7 6 7 7 7 7 7 6 6 6 5 5 6 6
19 17 16 15 13 12 11 10 9 8 7 5 2 3 4 4 5 7 7 8 7 7 6 5 5 4 3 4 5 4 5 5 6 7 7 7 6 6 5 5 5 5
20 18 17 16 12 11 11 11 10 9 8 6 4 2 0 1 2 3 5 5 5 5 5 5 5 4 3 4 4 3 3 4 4 5 6 6 6 6 5 5 5 5
20 16 15 16 14 11 10 10 11 10 8 7 6 5 3 2 2 3 3 4 4 4 4 3 4 3 3 4 4 3 3 3 3 4 4 4 4 5 4 4 4 5
17 14 12 14 15 13 11 11 11 11 9 8 7 6 6 5 4 4 4 5 5 5 4 4 5 4 4 3 4 4 3 2 2 2 2 2 2 3 3 2 3 3
16 15 13 14 15 14 14 14 14 13 11 9 8 7 7 7 6 6 6 7 7 8 7 7 7 7 6 6 6 6 5 4 3 3 2 2 0 0 0 1 1 1
19 18 18 18 18 17 17 17 16 14 12 12 11 10 9 8 8 8 8 9 9 10 10 10 10 9 8 8 8 8 8 8 7 6 6 6 4 3 3 3 3 2
22 22 22 22 22 21 20 19 17 16 14 13 13 12 11 11 11 11 11 12 12 12 12 12 11 10 10 10 10 10 10 11 11 9 9 9 8 7 6 6 6 6
23 23 22 21 21 21 21 20 19 18 17 15 14 14 14 14 14 13 13 13 14 13 13 12 12 12 12 12 12 12 12 12 13 13 12 12 11 10 10 10 9 8
20 21 20 20 20 20 21 20 19 19 19 18 17 16 16 16 15 15 15 16 15 14 13 12 12 13 14 15 16 15 15 14 14 13 13 14 14 13 12 13 12 10
18 19 19 19 20 21 20 19 18 18 18 18 18 18 18 18 17 17 17 16 15 15 15 14 14 15 17 19 19 18 18 17 17 15 13 14 16 15 14 14 14 13
16 17 16 16 17 17 17 16 16 17 17 17 18 19 20 20 19 19 20 19 18 18 18 18 17 18 20 22 22 21 20 20 20 19 17 16 16 16 16 16 16 15
11 11 12 11 11 10 10 10 12 13 14 15 17 18 19 18 18 19 20 21 21 21 20 21 21 22 23 24 25 24 22 22 22 22 22 20 19 18 18 18 17 17
8 7 8 7 6 4 4 4 5 5 7 9 11 13 14 13 13 14 17 19 20 20 20 21 24 25 27 28 28 26 25 25 24 23 24 24 22 21 20 20 19 18
7 7 6 6 5 5 4 4 3 2 3 4 6 7 7 7 8 9 12 14 16 17 17 19 22 24 26 28 28 26 26 27 27 26 25 26 25 24 23 22 21 20
7 6 5 5 6 6 4 3 3 3 4 4 4 4 5 6 6 7 8 10 11 12 14 16 18 21 23 24 24 25 26 28 29 29 29 28 28 27 26 24 22 21
8 7 6 6 6 6 6 6 6 7 6 6 5 5 6 7 7 8 9 10 10 11 13 15 16 17 19 20 22 23 26 28 30 31 31 30 30 29 28 25 23 21
9 8 7 7 7 7 8 8 9 9 8 7 7 8 8 9 8 9 10 11 13 13 14 15 15 15 16 18 20 21 24 27 29 30 31 31 31 31 29 25 22 21
7 7 8 9 9 8 8 8 8 8 8 8 9 10 11 12 11 11 12 13 15 16 16 17 16 15 15 16 18 20 21 24 27 29 30 30 31 30 27 24 22 20
5 5 7 8 8 7 7 6 5 5 5 7 7 8 9 10 11 12 13 14 15 16 17 17 16 15 15 16 17 18 19 21 23 26 27 28 30 28 24 23 22 20
5 6 7 7 7 7 6 5 5 4 4 6 6 7 8 9 10 11 12 14 15 15 16 16 16 15 16 17 18 19 19 19 21 24 26 28 28 25 23 23 22 21
7 8 8 8 9 9 8 7 7 8 8 9 9 9 9 9 10 11 13 14 15 15 16 17 17 17 17 18 18 19 20 18 20 24 27 26 24 23 23 23 22 21
8 9 9 9 10 10 10 10 11 12 12 11 11 10 10 10 10 12 14 15 15 16 16 18 18 18 18 18 17 19 19 19 21 25 27 25 23 23 23 22 21 21
10 11 11 11 12 13 14 15 15 15 14 13 12 12 12 12 12 14 16 17 17 17 17 18 19 19 19 19 18 18 18 19 22 25 25 24 23 22 21 20 21 21
14 15 15 15 16 16 16 16 16 15 15 14 15 14 13 13 15 16 17 18 18 18 18 19 20 20 20 20 18 16 16 19 22 24 24 24 23 22 20 21 22 22

ECMWFNIL_850_spd_030.txt.gz
Wind_Speed
15 15 15 15 15 14 15 17 18 17 17 16 15 15 14 13 12 11 10 10 9 8 8 9 9 9 10 10 9 9 9 8 8 8 7 6 5 5 5 4 3 3
16 17 17 16 16 16 15 16 18 18 17 16 16 16 15 14 13 12 11 11 10 9 9 9 8 8 8 8 8 8 7 7 7 7 6 5 5 5 5 4 4 4
17 18 19 18 17 17 16 15 16 17 16 15 15 15 15 14 14 13 12 12 11 10 9 9 9 8 7 7 7 7 7 7 6 6 6 6 5 5 5 5 4 4
19 20 19 19 18 17 16 15 14 14 14 14 13 13 14 13 13 13 12 11 10 10 10 9 8 9 8 7 7 7 7 7 6 6 6 6 5 6 6 6 5 4
22 22 21 21 20 18 17 16 14 14 13 12 12 12 12 12 12 12 12 11 10 9 8 8 7 7 7 7 7 6 6 7 6 6 6 5 5 6 6 6 5 5
25 23 22 22 21 19 18 16 15 14 13 13 12 11 10 10 11 12 11 11 10 8 7 7 6 5 5 4 4 4 4 5 5 5 5 4 4 4 5 5 4 4
27 24 23 23 22 20 18 17 16 15 15 14 14 13 11 11 10 10 10 10 9 8 7 6 5 4 4 4 3 3 2 2 2 3 3 3 3 3 3 3 2 2
28 26 23 23 23 21 20 19 18 17 17 16 15 14 12 10 9 9 9 9 8 8 7 6 5 4 5 5 5 5 5 4 4 4 3 3 3 3 2 2 2 2
28 28 26 25 26 24 22 21 20 19 19 17 16 15 13 11 10 9 8 8 8 7 6 6 5 5 5 5 5 5 6 6 6 5 5 5 5 4 4 4 3 3
29 30 29 28 27 25 23 23 22 20 20 19 17 16 14 13 12 11 10 9 8 7 6 6 6 6 6 6 6 6 6 6 6 6 6 6 7 6 6 6 5 5
31 30 28 25 25 24 23 23 22 22 23 23 20 18 16 14 14 13 12 11 10 10 9 9 8 8 9 9 9 8 8 8 8 7 7 7 7 7 7 7 7 7
32 28 23 22 24 25 25 25 25 26 26 24 21 19 17 16 16 14 13 13 12 12 12 11 10 10 11 11 12 12 11 11 11 12 11 10 9 9 9 9 8 8
26 22 21 23 25 24 23 23 24 25 24 21 19 19 19 18 18 16 15 14 15 15 14 13 12 13 14 15 15 15 15 15 15 15 15 14 14 13 12 12 11 11
17 17 19 22 25 25 22 21 22 22 20 19 19 19 19 19 18 17 17 17 17 18 17 16 16 18 19 19 18 17 17 18 18 18 18 18 17 16 16 15 14 14
14 13 14 17 21 21 20 20 20 20 19 19 19 18 17 17 17 17 17 17 17 19 21 21 21 21 20 20 20 19 18 19 20 21 21 21 20 19 19 19 18 17
12 12 12 13 14 13 13 13 13 13 13 13 12 12 11 10 10 11 12 12 13 15 17 19 19 18 17 19 21 21 20 21 22 24 24 23 23 22 22 22 21 21
11 11 10 10 10 10 10 10 9 9 9 8 8 8 7 7 7 8 8 8 8 9 11 12 13 14 14 15 17 19 20 21 23 24 24 24 24 24 24 24 24 23
10 10 10 10 11 10 9 8 8 8 8 8 8 8 8 8 8 8 8 7 8 8 8 9 9 9 10 11 13 15 17 18 20 21 22 23 24 25 26 26 26 26
11 10 10 11 12 11 10 9 9 9 9 9 10 10 10 10 9 9 9 9 9 10 10 10 10 11 11 12 13 13 14 15 16 17 19 21 23 25 27 28 27 27
12 12 11 12 12 12 12 11 11 11 11 12 12 11 11 11 11 12 12 12 12 12 12 13 13 14 14 14 14 13 13 13 14 16 18 19 20 22 25 26 27 28
12 12 12 12 12 12 12 11 11 11 11 10 10 9 10 10 10 11 12 12 13 13 13 13 13 14 14 14 13 13 14 15 16 17 17 17 17 18 20 23 26 28
9 9 10 11 12 12 11 10 9 8 7 7 7 6 7 7 7 9 10 10 11 12 14 15 14 14 14 13 13 14 14 16 17 18 18 16 15 15 17 21 25 26
9 9 9 10 11 10 9 8 7 7 7 7 7 8 8 7 8 9 10 10 10 11 13 14 15 15 15 15 15 15 16 17 17 18 17 16 14 14 16 20 24 24
10 10 10 11 11 11 11 10 9 10 10 10 11 12 11 10 10 10 11 12 12 12 13 14 14 14 15 15 16 16 17 18 17 17 16 14 14 15 19 22 23 22
10 11 11 12 13 13 13 12 12 13 13 14 15 15 14 14 14 13 13 13 14 14 15 15 15 14 15 16 16 17 18 19 19 17 14 14 15 18 21 23 22 21
9 10 12 12 13 13 13 14 15 16 17 18 17 16 16 17 17 17 16 15 15 16 16 16 16 15 16 16 17 18 19 19 19 16 13 14 16 19 21 21 21 21

ECMWFNIL_850_spd_033.txt.gz
Wind_Speed
16 16 14 12 11 10 9 10 10 9 9 9 9 9 9 9 9 9 9 8 8 7 7 7 7 6 6 6 6 6 6 5 5 6 6 5 5 5 5 5 4 4
18 18 16 12 11 11 11 11 11 10 10 10 10 10 10 10 10 10 10 10 10 9 9 8 8 7 7 7 7 6 6 5 5 6 6 6 5 5 5 5 5 4
21 20 17 13 12 12 12 13 13 12 11 11 11 11 10 10 10 10 10 10 11 11 10 10 10 10 9 9 9 8 8 7 7 7 7 7 7 6 7 7 6 5
25 23 18 12 13 15 14 15 15 15 13 12 11 11 11 10 10 10 10 10 10 11 11 11 10 11 10 10 10 9 9 9 9 9 9 9 8 8 8 8 7 7
26 25 21 16 16 19 18 16 16 16 14 13 11 11 10 10 10 10 10 9 9 9 9 10 10 9 10 10 9 9 9 9 9 9 9 9 8 8 9 9 8 7
26 25 24 20 20 22 19 16 17 17 15 14 12 10 10 9 8 8 8 8 8 8 7 8 8 8 8 8 8 8 7 7 7 7 8 7 7 7 7 7 7 6
28 26 26 23 21 22 19 16 17 18 16 14 12 11 10 8 7 7 7 7 7 7 6 6 6 6 6 6 6 6 7 6 5 5 5 5 5 5 5 4 4 4
29 26 25 23 21 21 21 17 17 17 15 13 13 12 11 9 8 8 7 7 8 7 7 6 5 5 5 6 6 6 6 6 6 5 5 4 4 4 4 3 2 2
29 27 24 21 22 23 22 19 17 16 15 14 14 12 12 12 11 11 10 10 10 9 8 7 6 6 5 5 5 5 5 5 5 5 5 5 4 4 4 4 3 4
28 26 22 20 21 21 20 19 20 19 17 16 15 13 14 14 15 15 14 13 12 10 9 8 7 6 6 5 5 5 5 5 5 4 4 4 4 5 6 5 5 5
28 26 23 21 19 18 19 21 22 22 20 19 18 16 16 17 18 20 19 17 14 12 11 9 8 8 7 7 6 6 6 6 6 5 5 5 4 5 6 6 6 6
30 28 25 23 20 19 20 21 21 22 23 23 22 21 21 21 22 22 23 22 19 16 14 12 11 10 10 9 8 8 9 9 9 9 8 8 8 8 8 8 7 7
27 26 25 24 24 23 23 24 24 24 26 26 25 23 23 24 24 23 23 23 23 21 18 15 14 14 13 12 11 11 12 12 12 12 12 12 12 12 11 11 11 10
22 23 24 26 27 26 26 27 26 25 25 26 25 23 24 25 24 23 22 21 22 22 19 16 16 16 15 14 13 15 16 17 16 15 15 16 16 16 15 15 14 14
18 18 20 23 26 26 26 28 28 25 24 24 24 24 26 26 25 25 23 21 21 20 17 16 17 18 17 16 17 19 19 19 19 18 17 17 18 19 18 18 18 17
14 14 15 18 21 23 26 26 25 24 24 25 24 24 25 26 25 24 22 20 19 17 16 17 18 19 19 20 21 20 19 19 19 18 18 17 18 20 20 20 20 20
12 12 13 14 15 17 18 16 15 16 18 18 17 16 17 17 17 15 14 13 12 11 11 13 14 15 16 16 16 15 15 15 16 16 17 17 17 19 21 20 20 21
9 9 10 10 10 10 10 9 8 9 9 10 10 9 9 9 9 9 9 8 8 8 8 9 9 9 9 10 10 10 10 12 13 14 15 15 16 17 18 19 19 21
8 8 8 9 10 11 11 10 10 10 9 9 10 10 10 10 10 9 9 8 8 8 8 9 9 9 9 9 10 10 10 11 12 12 13 14 14 15 16 17 18 19
9 9 9 10 11 11 11 10 9 9 9 9 10 10 10 10 10 10 9 9 10 10 11 11 11 11 12 12 11 11 11 12 12 13 13 13 14 15 15 17 17 17
10 10 9 10 11 11 11 10 10 10 9 10 10 10 10 10 10 10 10 10 11 11 12 12 12 12 12 12 11 11 10 11 12 13 14 15 16 16 16 16 16 16
9 10 10 10 11 12 12 12 12 12 12 12 12 11 10 10 10 10 10 9 10 10 10 11 12 13 13 13 13 12 11 12 12 13 15 15 16 16 16 15 15 15
9 10 10 11 12 12 12 13 12 11 10 10 9 9 9 9 9 9 9 9 10 10 11 11 12 13 14 14 14 14 14 13 13 14 15 15 16 16 15 14 13 12
11 11 10 11 12 12 12 12 10 9 8 7 8 8 9 9 10 10 11 11 11 12 13 14 14 14 14 14 14 14 14 14 14 15 16 17 17 16 15 13 11 10
10 11 11 11 12 12 12 12 11 10 9 8 8 10 11 13 13 12 12 13 13 14 14 15 16 16 16 15 15 14 14 13 14 15 16 17 17 16 14 13 11 10
8 9 9 10 10 11 11 11 11 10 10 9 10 12 13 15 14 13 13 15 16 16 16 16 17 17 17 16 15 14 14 14 14 15 15 16 16 14 13 12 11 12

ECMWFNIL_850_spd_036.txt.gz
Wind_Speed
10 10 8 7 7 5 4 3 2 2 2 2 3 3 4 4 4 4 4 3 3 4 4 5 5 6 6 7 8 8 9 9 8 9 9 9 10 10 10 10 9 9
11 11 9 8 9 7 5 5 3 2 2 2 2 2 3 3 3 4 4 4 3 3 3 3 4 5 5 6 8 8 9 9 9 10 10 9 10 10 11 11 10 9
12 11 9 10 10 9 7 7 5 4 3 4 3 3 2 2 2 2 3 3 3 2 2 2 3 4 4 5 7 8 9 10 10 11 11 11 12 11 12 12 11 10
14 12 11 11 11 10 10 9 6 5 6 5 5 4 3 2 2 2 2 2 2 1 1 1 1 2 3 4 5 6 8 9 10 11 11 11 12 12 12 12 11 10
15 14 12 12 12 12 13 11 7 8 9 7 6 5 4 3 3 2 2 2 2 2 1 1 0 0 1 2 3 4 5 7 8 9 9 10 11 11 11 11 10 10
18 18 16 15 15 15 16 14 10 11 12 9 8 7 5 4 3 2 2 2 2 2 2 2 1 1 1 0 0 1 2 3 5 6 7 7 8 8 9 9 8 8
21 21 19 19 19 17 18 16 14 14 14 10 9 8 5 4 3 2 2 2 2 2 2 2 2 2 2 2 1 1 0 0 1 2 3 3 3 4 5 6 6 5
22 21 20 21 22 20 19 16 15 16 15 12 11 9 7 5 4 4 4 4 4 4 4 3 3 3 3 3 3 3 2 2 2 2 1 1 0 0 1 2 2 2
23 22 22 24 24 22 20 17 14 15 15 13 12 11 9 8 7 6 7 7 7 7 6 5 5 5 5 5 5 4 3 3 3 3 3 3 2 2 2 2 2 1
25 22 23 26 24 22 21 18 16 16 15 14 14 13 11 11 11 10 10 10 10 9 8 7 7 7 6 6 6 6 4 3 3 3 3 4 4 4 4 4 4 4
25 22 23 25 23 21 22 22 20 18 16 15 15 14 13 14 14 13 13 13 13 13 12 11 10 10 9 8 9 10 8 6 5 5 4 5 5 4 4 5 5 5
23 23 23 24 23 21 23 24 22 20 19 19 17 16 15 16 16 15 14 14 15 16 17 16 14 13 13 13 13 14 13 11 8 8 8 9 9 7 5 5 6 6
19 21 23 22 21 20 21 21 20 20 22 23 22 20 18 18 19 18 17 16 18 21 20 18 17 16 15 16 15 14 15 14 12 12 12 14 14 13 10 8 8 9
16 19 21 19 18 19 20 20 20 21 22 23 24 24 23 23 22 21 20 19 21 23 21 19 20 20 18 17 17 15 15 16 15 15 16 16 17 16 14 12 12 12
13 16 19 19 20 20 20 20 21 21 20 21 22 23 24 23 21 21 21 21 21 22 20 19 21 21 18 17 17 16 15 15 15 18 19 18 18 17 16 16 16 15
11 12 15 17 19 21 22 22 22 21 20 20 20 21 22 21 19 19 22 23 22 21 20 21 22 21 19 18 18 16 16 17 19 21 20 18 17 17 17 16 17 17
9 10 11 12 14 18 20 21 21 21 20 19 19 20 21 21 20 20 20 18 16 15 15 17 17 16 15 15 15 15 16 18 19 18 17 17 17 18 18 17 17 17
8 9 10 10 11 14 16 19 20 20 19 18 19 19 18 16 15 12 10 8 6 5 7 8 8 8 9 9 9 10 12 14 14 14 14 15 16 16 17 17 16 17
8 9 10 10 10 11 13 15 16 16 14 13 12 11 9 8 7 6 5 5 4 4 5 5 6 7 7 8 8 9 10 12 12 13 13 13 13 14 14 15 15 16
7 7 8 9 10 10 10 11 11 11 10 9 8 8 7 7 6 6 6 6 6 6 7 7 8 9 9 10 11 11 10 10 10 11 11 11 11 12 12 13 14 15
6 6 7 8 9 9 9 9 8 7 7 6 6 6 6 6 6 6 7 7 8 9 9 10 10 11 12 12 12 11 11 10 9 9 10 10 10 11 11 12 13 14
4 5 6 6 7 8 8 8 7 6 6 6 6 7 7 8 7 7 7 7 8 8 9 10 10 11 12 12 12 12 12 12 11 11 10 11 11 11 12 12 13 13
5 5 5 5 5 6 7 8 7 7 7 7 8 8 8 7 7 6 6 6 6 6 7 8 9 10 11 12 13 13 12 12 12 12 11 11 11 12 13 14 13 12
7 7 6 6 6 7 7 8 8 8 7 7 7 7 6 6 6 5 5 6 6 7 8 9 10 11 12 13 14 14 14 13 13 12 11 11 12 13 14 14 14 12
6 8 8 8 8 8 9 9 9 8 8 8 8 7 6 7 7 7 7 7 8 9 10 10 11 12 13 14 15 15 16 15 14 13 12 12 12 13 14 15 15 13
12 12 12 13 13 12 11 11 12 11 10 10 9 9 8 8 8 8 8 8 9 10 11 12 13 13 14 14 14 14 14 13 12 12 12 12 13 13 14 14 14 12

ECMWFNIL_850_spd_042.txt.gz
Wind_Speed
10 9 8 9 10 10 10 10 12 12 12 13 13 13 13 12 12 12 12 12 11 10 10 9 10 10 10 11 11 9 8 9 10 11 11 12 11 11 10 10 10 9
10 8 8 9 10 10 9 10 11 11 11 12 12 13 12 12 11 11 11 11 11 11 11 10 9 10 10 10 11 10 9 9 9 10 10 11 11 11 11 11 11 11
10 9 8 8 9 9 10 10 10 10 10 10 11 12 11 11 11 11 11 11 11 11 11 11 11 10 10 11 11 11 10 9 10 10 10 11 11 11 11 12 12 12
11 10 10 9 9 10 10 11 10 10 10 9 10 10 10 11 11 11 11 10 11 11 10 11 11 11 11 11 11 11 11 10 10 11 11 10 11 11 12 12 12 12
11 12 12 10 10 11 11 12 11 11 11 10 10 9 9 10 10 10 10 10 10 10 10 10 10 10 11 11 11 11 11 11 10 11 11 10 11 11 11 12 11 11
13 13 13 12 12 12 13 14 14 12 11 11 12 10 8 9 11 10 10 10 9 9 8 9 9 9 9 10 10 10 10 10 10 10 10 9 10 10 10 11 10 10
14 14 15 14 14 14 15 16 15 12 10 11 14 13 11 10 11 11 10 10 9 8 8 8 7 7 8 8 8 8 8 8 9 9 8 7 8 8 8 8 8 8
15 16 17 16 15 16 17 17 15 12 11 12 13 14 14 13 12 11 11 10 9 8 7 7 6 6 6 5 5 5 6 6 7 7 6 6 6 6 6 5 6 5
17 17 18 17 15 16 18 19 16 12 12 13 13 15 15 14 14 12 11 10 9 8 7 6 6 5 4 4 3 3 4 4 4 5 5 5 5 5 4 4 4 4
18 19 20 19 17 17 19 19 18 14 13 13 15 15 15 15 14 13 12 11 10 9 8 7 6 5 4 4 3 3 3 3 4 4 4 4 4 4 4 4 4 3
16 19 20 20 19 19 19 20 19 17 14 14 16 16 16 16 15 14 13 12 11 10 9 8 8 7 6 5 5 4 4 4 4 4 4 4 4 4 4 4 4 5
13 16 18 19 19 19 20 21 20 18 16 15 17 18 18 17 16 15 13 11 10 10 9 9 10 9 8 7 7 6 6 6 5 5 6 6 5 5 5 5 6 6
11 14 16 16 17 18 19 20 20 20 18 16 17 19 19 18 17 16 14 12 11 10 10 11 11 12 11 10 9 9 9 9 9 9 9 9 9 8 8 7 7 8
9 12 14 14 15 17 18 19 20 20 19 17 18 20 19 18 18 18 17 15 14 13 12 13 13 13 12 12 13 13 14 14 13 11 11 11 12 11 11 10 9 9
8 11 13 14 16 19 21 20 19 20 21 21 21 20 19 18 18 19 17 17 17 16 15 15 14 13 13 14 15 15 16 16 15 13 12 12 12 12 12 12 12 12
8 10 12 12 14 17 18 17 16 18 22 23 22 21 20 19 19 19 18 17 17 18 17 16 16 16 16 16 17 18 18 18 15 13 11 11 11 12 13 13 14 14
7 8 8 8 9 9 11 13 14 16 19 20 20 19 19 19 18 18 18 17 17 18 19 18 17 17 17 18 19 19 18 16 14 12 11 10 11 11 11 11 10 10
5 6 6 6 7 7 9 11 13 14 16 17 18 17 17 16 16 16 16 15 16 17 17 17 17 17 16 15 14 12 11 11 10 10 8 8 8 7 7 7 6 6
4 4 5 5 6 6 7 9 12 14 15 17 18 18 17 16 15 15 16 15 15 15 14 14 13 12 10 8 6 5 6 7 7 6 5 5 5 5 5 5 5 5
2 3 4 5 5 6 7 8 11 13 15 17 18 18 19 18 16 15 16 15 15 14 11 9 8 7 6 5 5 5 5 5 5 5 5 5 5 5 5 5 5 6
2 2 3 4 5 5 6 8 10 12 14 15 15 16 17 16 14 13 14 14 14 13 10 8 7 7 6 5 5 5 5 4 4 4 4 4 4 4 5 5 5 6
3 2 3 3 4 4 4 6 7 8 8 8 9 11 11 11 11 11 12 12 11 10 9 9 9 8 7 6 6 5 5 4 4 3 4 5 4 5 5 6 7 8
2 1 2 4 4 4 5 5 5 5 6 7 8 8 9 11 12 12 12 11 10 9 9 9 9 7 6 6 5 5 5 4 4 4 5 5 5 6 8 9 10 10
4 3 3 4 4 5 6 7 7 7 7 7 9 10 11 13 14 13 12 11 10 10 9 8 7 5 4 4 3 3 2 2 3 4 5 5 5 8 10 10 10 10
6 7 7 6 4 5 7 7 8 9 9 10 10 11 12 13 13 13 13 12 11 10 9 7 6 4 3 3 2 2 2 0 2 3 4 4 5 7 10 10 10 10
7 8 10 10 8 9 9 8 8 10 12 12 12 12 13 13 13 13 13 12 11 11 9 7 5 4 3 3 3 4 3 1 2 4 4 4 5 6 7 9 10 10

ECMWFNIL_850_spd_045.txt.gz
Wind_Speed
11 10 10 10 10 11 12 12 12 12 12 12 11 11 11 11 10 9 9 8 8 8 8 8 9 9 9 10 10 8 8 9 9 9 9 9 8 7 7 9 11 10
12 11 10 10 10 11 12 13 13 13 13 13 12 12 12 12 10 9 9 8 8 7 7 7 8 8 8 8 9 8 8 9 9 9 9 9 9 9 9 10 11 11
13 12 11 11 12 13 14 14 14 14 14 14 13 13 12 12 12 11 10 9 8 8 8 8 8 8 8 8 9 9 9 9 9 9 9 9 9 9 9 10 10 10
14 13 12 12 14 14 14 15 16 15 15 14 12 12 13 12 12 12 11 10 9 8 9 9 9 9 9 9 9 10 10 10 10 10 9 10 10 10 10 10 11 11
15 13 12 13 14 14 13 14 16 16 15 14 13 12 12 12 12 12 12 11 10 9 9 9 9 10 10 11 10 11 11 10 11 11 10 11 10 10 10 10 11 11
17 15 14 13 13 13 13 13 16 17 16 16 15 13 13 12 12 12 12 12 11 10 10 9 9 10 10 10 10 10 10 10 11 10 9 9 9 9 9 9 8 8
18 17 15 13 12 13 14 15 16 18 18 18 16 15 14 13 12 12 12 12 12 11 10 10 9 9 9 9 9 9 9 10 10 9 7 7 8 7 7 7 7 6
18 16 15 13 13 13 14 16 17 18 18 18 16 15 14 14 13 13 12 12 11 11 10 10 9 9 9 8 7 7 7 8 8 7 6 7 7 5 4 5 6 4
17 16 14 14 14 14 14 16 17 17 17 17 15 14 14 14 13 13 13 12 12 11 10 10 9 9 8 7 7 6 6 6 6 6 5 5 5 4 3 3 4 3
17 16 15 15 15 15 15 16 17 17 16 15 14 13 14 14 14 14 13 13 13 12 11 10 9 8 7 7 6 6 6 6 5 5 5 4 4 5 4 4 3 3
17 16 15 16 16 16 15 15 17 16 15 14 13 13 14 14 15 14 14 13 13 12 11 11 10 9 8 8 8 7 7 6 6 6 5 5 5 6 5 5 5 4
15 15 15 16 18 18 17 15 16 15 14 14 13 13 14 14 15 14 14 13 12 12 11 11 10 9 9 9 8 8 9 8 8 7 7 6 7 6 6 6 6 6
13 13 14 16 17 18 18 17 15 14 14 14 14 14 14 14 14 14 14 14 13 12 12 11 11 11 10 10 10 10 10 10 10 10 9 8 9 8 8 8 7 7
11 11 13 15 16 17 19 19 16 14 14 14 14 15 16 15 15 14 14 14 13 13 13 12 12 12 11 11 11 10 11 11 12 13 12 12 12 11 11 11 9 9
9 11 12 13 14 14 16 18 18 16 16 15 15 15 16 16 16 15 15 15 14 14 14 13 14 13 13 13 13 11 12 13 14 15 15 14 15 15 14 14 12 10
7 8 10 11 13 13 12 15 18 19 19 19 18 17 17 17 16 16 16 16 16 17 17 16 17 17 16 16 15 14 15 15 15 17 18 17 17 18 17 16 14 12
5 5 6 8 10 11 10 12 15 18 19 20 20 20 20 18 17 17 17 17 18 19 19 20 19 17 16 16 16 16 18 18 17 18 20 20 20 18 17 15 13 11
4 4 4 5 6 7 8 9 10 12 15 18 20 21 21 20 19 19 19 20 20 18 18 20 18 15 14 15 16 17 19 20 19 18 18 19 18 16 13 11 10 9
4 4 4 4 5 5 6 7 8 9 10 12 15 18 19 21 21 21 20 20 19 16 15 16 14 12 15 16 16 16 16 17 17 15 13 11 9 8 7 6 6 5
2 3 3 3 4 5 6 7 8 9 10 12 15 18 20 21 21 20 19 19 19 18 17 14 12 13 15 13 12 12 10 10 9 8 6 3 1 2 3 4 5 5
3 2 1 2 3 4 5 6 6 9 10 12 15 17 17 18 18 18 18 18 18 20 21 18 16 14 13 11 9 9 8 7 6 5 4 3 4 5 5 6 6 7
4 3 1 1 2 3 4 4 5 7 8 10 12 12 12 15 17 17 18 18 17 18 17 16 15 14 12 10 10 9 8 7 6 5 5 6 7 7 6 6 6 6
4 3 2 1 2 3 3 4 4 5 6 8 9 9 10 13 14 15 16 16 13 11 9 10 14 14 12 11 11 11 10 8 6 6 6 6 6 6 6 7 8 6
4 3 3 2 3 4 4 5 5 5 6 7 7 8 8 9 8 8 10 11 10 9 9 10 12 13 12 11 11 11 11 9 7 7 7 6 6 6 7 8 8 7
4 4 4 4 4 4 4 5 5 6 6 7 7 7 7 8 7 7 8 9 9 10 12 12 11 11 11 10 10 10 9 10 8 7 8 7 6 6 7 8 8 8
4 4 4 4 5 5 5 6 6 7 7 8 8 7 8 9 10 10 10 11 11 13 15 13 11 11 10 9 10 9 9 11 10 8 8 7 6 7 7 7 8 9

ECMWFNIL_850_spd_048.txt.gz
Wind_Speed
17 16 14 12 11 10 9 9 9 9 7 7 8 7 7 7 6 6 7 7 7 9 10 11 11 12 13 12 10 11 13 13 13 13 12 12 14 17 18 16 14 15
18 16 14 13 11 10 10 10 10 10 9 9 9 8 7 6 5 5 5 5 6 7 8 9 9 9 10 10 10 11 12 12 13 13 13 14 15 16 18 16 14 13
19 17 15 14 12 11 12 12 11 10 10 11 10 8 7 6 5 6 5 5 6 6 7 8 8 8 9 9 10 10 10 11 12 12 12 13 14 15 16 15 13 13
20 18 16 14 12 12 13 13 13 12 12 12 10 7 7 6 6 6 6 6 7 7 8 8 9 9 10 11 11 12 13 13 13 13 13 14 13 15 16 16 15 14
19 18 17 15 14 13 13 14 14 14 14 13 10 8 9 8 7 7 7 7 8 8 8 8 9 10 11 12 12 12 13 14 14 14 14 15 14 14 15 15 16 16
19 17 16 16 14 13 13 14 15 15 15 14 11 10 10 9 8 7 7 8 8 8 8 8 9 10 10 11 11 11 12 13 13 11 12 14 13 12 12 12 13 14
19 17 16 15 13 12 12 13 14 16 16 15 13 13 12 11 10 8 8 8 8 8 8 8 9 9 9 9 9 10 10 11 10 8 9 10 10 10 10 10 9 9
20 18 17 16 14 13 14 14 16 17 18 17 16 15 14 12 11 10 9 9 9 9 8 8 8 8 8 7 7 7 7 8 7 5 5 6 6 6 6 6 5 4
22 21 19 17 16 15 15 16 17 18 18 18 16 15 15 13 11 12 11 10 10 9 9 9 9 8 8 7 6 6 5 5 4 3 3 3 3 4 2 2 2 1
23 22 20 18 17 17 17 18 18 17 16 16 16 15 15 13 11 11 11 10 10 10 9 10 9 9 8 7 7 6 5 5 4 3 2 3 2 3 2 3 2 3
23 24 22 21 20 19 19 19 18 17 17 16 15 14 13 12 11 11 11 10 10 9 9 9 9 9 9 8 8 7 6 6 6 5 5 5 4 5 5 4 3 3
24 26 26 23 21 20 21 21 18 17 18 16 14 12 12 11 11 11 11 11 10 10 9 8 8 8 7 8 8 7 7 7 7 7 6 5 6 6 5 5 6 4
23 26 25 22 21 21 21 20 18 16 16 15 14 12 12 13 13 12 12 11 10 9 9 8 7 8 8 9 8 7 7 8 8 9 7 6 7 6 5 6 8 6
19 21 21 20 20 22 21 18 16 14 13 12 12 12 12 14 13 12 12 13 11 10 10 10 11 13 13 11 10 10 10 10 10 10 9 9 9 8 7 9 8 8
15 15 15 16 17 20 20 17 15 16 15 13 13 13 13 14 13 12 12 13 12 12 14 14 16 17 14 10 9 11 11 11 11 12 11 10 10 11 12 12 11 12
11 12 13 14 15 17 17 15 16 18 19 17 16 16 16 16 15 15 14 14 15 16 18 18 17 16 15 12 12 12 13 13 14 15 14 12 13 15 16 15 15 15
8 10 13 14 15 14 13 13 15 18 20 20 19 18 18 18 18 18 17 18 19 19 19 18 17 16 15 15 15 14 14 15 17 17 17 17 17 17 18 18 17 17
5 7 11 12 12 11 10 10 11 14 17 19 19 19 19 19 20 21 21 21 22 21 20 19 17 17 17 18 19 18 16 16 18 20 19 19 18 17 17 17 15 14
5 6 7 7 7 6 7 7 8 10 12 14 16 19 22 23 23 23 23 23 23 22 20 17 15 16 17 18 19 19 17 16 19 21 19 17 16 14 11 12 10 9
4 5 5 5 5 4 4 5 5 6 8 9 11 17 21 23 24 24 24 24 24 22 19 17 16 17 17 17 17 17 17 16 17 17 13 8 7 5 4 6 7 6
7 6 5 4 3 3 3 4 4 5 8 9 10 12 15 17 19 21 22 21 21 21 21 20 20 19 19 19 19 17 15 13 12 10 7 6 6 5 6 8 8 7
9 8 7 6 5 4 3 0 2 4 6 9 10 11 12 14 14 16 17 18 19 21 21 21 19 18 19 19 17 15 13 11 10 9 9 7 6 7 8 8 9 8
8 7 6 5 5 4 3 2 2 2 3 5 6 8 9 11 11 12 13 15 17 18 19 18 17 16 16 16 14 13 12 12 11 10 8 7 9 10 11 11 12 13
7 7 6 5 5 5 2 1 2 3 5 5 5 5 7 8 8 9 10 11 12 13 15 15 15 14 14 14 15 14 14 13 12 10 9 11 13 14 14 14 13 14
7 5 2 2 3 4 3 2 1 2 4 7 7 5 5 6 7 7 7 8 9 10 12 13 12 11 13 15 15 15 15 15 14 12 11 14 14 14 15 15 14 14
6 5 5 3 2 2 2 2 2 2 2 5 8 7 6 8 8 7 7 8 8 10 13 14 13 11 12 14 15 15 15 16 17 13 11 15 15 13 15 15 14 14